TimeEST,TemperatureF,Dew PointF,Humidity,Sea Level PressureIn,VisibilityMPH,Wind Direction,Wind SpeedMPH,Gust SpeedMPH,PrecipitationIn,Events,Conditions,WindDirDegrees,DateUTC
12:55 AM,1.4,-15.5,45,30.09,10.0,West,11.5,-,N/A,,Clear,270,2013-01-24 05:55:00
1:55 AM,0.5,-16.6,45,30.09,10.0,West,13.8,-,N/A,,Clear,280,2013-01-24 06:55:00
2:55 AM,-0.4,-18.6,42,30.08,10.0,West,12.7,-,N/A,,Partly Cloudy,280,2013-01-24 07:55:00
3:55 AM,-0.6,-18.6,42,30.07,10.0,West,13.8,-,N/A,,Clear,280,2013-01-24 08:55:00
4:55 AM,-0.9,-18.4,44,30.07,10.0,West,5.8,-,N/A,,Clear,280,2013-01-24 09:55:00
5:55 AM,-1.3,-18.0,45,30.07,10.0,West,12.7,-,N/A,,Clear,270,2013-01-24 10:55:00
6:55 AM,-2.0,-18.0,47,30.09,10.0,WNW,9.2,-,N/A,,Clear,290,2013-01-24 11:55:00
7:55 AM,-0.4,-18.8,42,30.09,10.0,West,10.4,-,N/A,,Partly Cloudy,280,2013-01-24 12:55:00
8:55 AM,2.3,-18.8,37,30.09,10.0,West,15.0,-,N/A,,Partly Cloudy,280,2013-01-24 13:55:00
9:55 AM,6.3,-17.7,33,30.09,10.0,WNW,17.3,24.2,N/A,,Partly Cloudy,290,2013-01-24 14:55:00
10:55 AM,9.9,-16.4,30,30.07,10.0,WNW,16.1,21.9,N/A,,Partly Cloudy,300,2013-01-24 15:55:00
11:55 AM,12.4,-16.8,26,30.05,10.0,West,17.3,29.9,N/A,,Partly Cloudy,280,2013-01-24 16:55:00
12:55 PM,14.4,-16.2,25,30.04,10.0,NW,21.9,31.1,N/A,,Scattered Clouds,310,2013-01-24 17:55:00
1:55 PM,14.7,-16.4,24,30.02,10.0,WNW,26.5,35.7,N/A,,Scattered Clouds,290,2013-01-24 18:55:00
2:55 PM,14.4,-15.5,25,30.03,10.0,West,15.0,24.2,N/A,,Mostly Cloudy,280,2013-01-24 19:55:00
3:55 PM,14.2,-15.7,25,30.03,10.0,West,16.1,33.4,N/A,,Mostly Cloudy,280,2013-01-24 20:55:00
4:55 PM,13.3,-16.2,26,30.04,10.0,WNW,16.1,24.2,N/A,,Mostly Cloudy,290,2013-01-24 21:55:00
5:55 PM,12.7,-15.5,27,30.07,10.0,West,13.8,21.9,N/A,,Scattered Clouds,270,2013-01-24 22:55:00
6:55 PM,12.0,-15.0,29,30.08,10.0,West,17.3,27.6,N/A,,Scattered Clouds,280,2013-01-24 23:55:00
7:55 PM,11.3,-15.2,30,30.10,10.0,WNW,19.6,27.6,N/A,,Partly Cloudy,300,2013-01-25 00:55:00
8:55 PM,9.7,-13.9,34,30.11,10.0,WNW,26.5,34.5,N/A,,Clear,300,2013-01-25 01:55:00
9:55 PM,8.4,-12.8,38,30.15,10.0,WNW,12.7,24.2,N/A,,Clear,300,2013-01-25 02:55:00
10:55 PM,7.9,-11.9,40,30.16,10.0,WNW,15.0,27.6,N/A,,Clear,300,2013-01-25 03:55:00
11:55 PM,7.3,-11.2,43,30.17,10.0,WNW,12.7,24.2,N/A,,Clear,290,2013-01-25 04:55:00